Regional Weather Roundup
Issued by NWS Grand Forks, ND

Home | Current Version | Previous Version | Text Only | Print | Product List | Glossary Off
Versions: 1 2 3 4 5 6 7 8 9 10 11 12 13 14 15 16 17 18 19 20 21 22 23 24 25 26 27 28 29 30 31 32 33 34 35 36 37 38 39 40 41 42 43 44 45 46 47 48 49 50

000
ASUS43 KFGF 181431
RWRFGF
PRAIRIE TO PINES  WEATHER ROUNDUP
NATIONAL WEATHER SERVICE EASTERN NORTH DAKOTA/GRAND FORKS ND
800 AM CST SUN FEB 18 2018

 **SATELLITE DATA USED TO AUGMENT SKY COVER AT AUTOMATED STATIONS**
 *****  WEATHER ACROSS EASTERN NORTH DAKOTA  *****

CITY           SKY/WX    TMP DP  RH WIND       PRES   REMARKS
GRAND FORKS    LGT SNOW  12   8  84 NE13      29.86F VSB 1   WCI  -3
GRAND FRKS AFB CLOUDY    10   7  85 E10       29.85F BLWGSNOWWCI  -3
GRAND FRKS NWS   N/A     10   8  92 NE15      29.83F WCI  -7
DEVILS LAKE    LGT SNOW   9   3  78 NE13      29.81R FOG     WCI  -7
FARGO          LGT SNOW  18  15  88 NE15      29.74F VSB 3/4 WCI   4
WAHPETON ARPT  PTSUNNY   23  14  68 E13       29.68F WCI  11
$$

 ***** WEATHER ACROSS CENTRAL AND WESTERN NORTH DAKOTA  *****

CITY           SKY/WX    TMP DP  RH WIND       PRES   REMARKS
BISMARCK       FLURRIES  13   8  81 NE18G24   29.67R WCI  -4
MINOT          LGT SNOW   7   2  80 N10       29.81R WCI  -8
JAMESTOWN      MIX PCPN  14  11  87 NE21      29.66F WCI  -4
MINOT AFB      LGT SNOW   6   2  83 NE10      29.81S WCI  -9
GARRISON         N/A      6   2  83 NE9       29.74R WCI  -8
WILLISTON      LGT SNOW   9   4  80 NE12      29.83R WCI  -6
DICKINSON      SNOW       7   4  87 NE22      29.64R VSB 1/2 WCI -14
HETTINGER      LGT SNOW  13  10  88 NE16      29.59R VSB 3/4 WCI  -3
$$

 *****  OTHER AIRPORT OBSERVATIONS IN OUR AREA  *****

CITY           SKY/WX    TMP DP  RH WIND       PRES   REMARKS
WALHALLA       LGT SNOW   9   9 100 NE7       29.92R WCI  -3
GRAFTON AIRPOR NOT AVBL
VALLEY CITY AR NOT AVBL
CANDO          LGT SNOW   7   5  92 NE10      29.85R WCI  -8
CAVALIER APRT  LGT SNOW   9   5  85 NE6       29.92S WCI  -1
GWINNER          N/A     19  16  86 E20       29.63F WCI   4
SHEYENNE NWR     N/A     19  17  90 E16       29.95S WCI   4
ROLLA          LGT SNOW   3   1  92 N10       29.84R WCI -12
 ***** THE ABOVE OBSERVATIONS ARE NON NWS ARE NOT QUALITY
       CONTROLLED AND MAY MIS-REPORT RAIN FOR SNOW...
$$

  *****  WEATHER ACROSS NORTHERN MINNESOTA  *****

CITY           SKY/WX    TMP DP  RH WIND       PRES   REMARKS
FLAG ISLAND    FAIR       1  -8  66 CALM      29.94S
WARROAD        FAIR       3   0  85 NE5       29.92S WCI  -6
ROSEAU         FAIR       7   1  78 SE5       29.91  WCI  -2
HALLOCK        LGT SNOW   9   3  78 E6        29.91F WCI  -1
THF RVR FALLS  LGT SNOW  10   7  85 E14       29.86F VSB 3/4 WCI  -5
BAUDETTE       LGT SNOW   4  -3  73 E7        29.91F WCI  -8
WASKISH        LGT SNOW   9   7  92 E7        29.89F VSB 1   WCI  -3
CROOKSTON      LGT SNOW  12   9  85 E12       29.85F VSB 3/4 WCI  -2
STEPHEN NDAWN    N/A      9   5  85 E9          N/A  WCI  -5
GREENBUSH NDAW   N/A      3   0  85 NE5         N/A  WCI  -6
$$
  *****  WEATHER ACROSS CENTRAL AND WEST MINNESOTA  *****

CITY           SKY/WX    TMP DP  RH WIND       PRES   REMARKS
FOSSTON        SNOW      10   7  85 E5        29.82S VSB 1/4 WCI   2
BEMIDJI        SNOW      11   8  89 E7        29.82F VSB 1/4 WCI   0
PARK RAPIDS    LGT SNOW  14  10  84 E8        29.79F FOG     WCI   3
ELBOW LAKE     CLOUDY    22  12  65 SE17G23   29.68F WCI   7
WADENA         MOCLDY    16  10  79 E10G16    29.75F WCI   3
DETROIT LAKES  LGT SNOW  19  16  86 E7G16     29.75F WCI  10
MOORHEAD       LGT SNOW  19  16  86 NE12        N/A  WCI   7
FERGUS FALLS   FLURRIES  21  12  68 E18G28    29.68F WCI   6
MORRIS MN      CLOUDY    27  16  63 SE23G35   29.64F WCI  12
STAPLES        MOCLDY    16   9  73 E9        29.78S WCI   4
$$
  *****  WEATHER ELSEWHERE ACROSS MINNESOTA  *****

CITY           SKY/WX    TMP DP  RH WIND       PRES   REMARKS
DULUTH         LGT SNOW  14   8  77 SE10      29.94S VSB 3/4 WCI   1
INTRNTL FALLS  CLOUDY     2  -5  72 E7        29.95F WCI -11
ELY            LGT SNOW   3   1  92 CALM      29.95F
CLOQUET        LGT SNOW  12   9  85 E9        29.92F VSB 1   WCI   0
WHEATON        FAIR      25  12  58 E17G25    29.66F WCI  11
BRAINERD       CLOUDY    18   9  68 E9        29.85F WCI   7
HIBBING        SNOW       7   5  91 E5        29.92F VSB 1/4 WCI  -2
ALEXANDRIA     CLOUDY    20   9  62 SE20G31   29.69F WCI   4
SAINT CLOUD    CLOUDY    21   7  54 SE9G20    29.84F WCI  11
MINNEAPOLIS    CLOUDY    23   9  55 SE15      29.91F WCI  10
$$

  *****  WEATHER ACROSS SOUTH DAKOTA  *****

CITY           SKY/WX    TMP DP  RH WIND       PRES   REMARKS
SIOUX FALLS    FAIR      34  23  64 S24G36    29.58F WCI  21
BROOKINGS      CLOUDY    30  23  75 S17       29.56F WCI  18
WATERTOWN      FAIR      28  22  78 SE14      29.52F WCI  17
HURON          FAIR      32  24  72 S15       29.47F WCI  22
SISSETON         N/A     24  18  77 SE12      29.62F WCI  13
ABERDEEN       FAIR      25  20  81 NE8       29.52F WCI  16
MITCHELL       FAIR      36  25  64 S13       29.49F
PIERRE         FAIR      26  23  88 SW3       29.42
MOBRIDGE       CLOUDY    24  19  81 NE13      29.50R WCI  12
RAPID CITY     FAIR      25  21  85 NW12      29.49R WCI  14
$$

  *****  SOME WEATHER IN NEARBY STATES *****

CITY           SKY/WX    TMP DP  RH WIND       PRES   REMARKS
GLASGOW MT     FLURRIES   7   1  76 N9        29.87R WCI  -7
GREAT FALLS MT LGT SNOW   0  -4  83 N6        29.84R FOG     WCI -12
CHEYENNE WY    FAIR      34   9  35 CALM      29.55F
SCOTTSBLUFF NE FAIR      45  16  31 S14       29.50S
OMAHA NE       MOCLDY    36  24  62 S18G25    29.85F
DES MOINES IA  MOCLDY    30  24  78 SE14      30.00F WCI  19
DAVENPORT IA   FAIR      24  18  77 SE9       30.22S HAZE    WCI  14
CHICAGO IL     FAIR      21  19  92 SE5       30.22F FOG     WCI  15
EAU CLAIRE WI  MOCLDY    19   9  65 SE12      30.02F WCI   7
LA CROSSE WI   FAIR      20  17  88 S7        30.09S WCI  11
$$

  *****  SOME NATIONAL WEATHER *****

CITY           SKY/WX    TMP DP  RH WIND       PRES   REMARKS
LA GUARDIA NY  FAIR      38  23  55 N18G26    30.21R
RALEIGH NC     FAIR      44  42  93 N5        30.31R
ATLANTA GA     FAIR      50  46  86 NW8       30.25R
NEW ORLEANS LA FOG       66  65  96 SE6       30.21R VSB 1/2
OKLAHOMA CITY  CLOUDY    42  41  96 S12       30.07F FOG
ALBUQUERQUE NM MOCLDY    40  37  89 SE3       30.02S
SALT LAKE CITY CLOUDY    53  15  22 S26G40    29.58F
LOS ANGELES CA FAIR      51  45  79 E5        29.99S
BOISE ID       MOCLDY    36  27  69 W3        29.63R
SEATTLE WA     MOCLDY    34  29  82 S10       29.64R
$$

*** WEATHER ACROSS MANITOBA...SASKATCHEWAN AND ONTARIO ***
                ***ONTARIO***

CITY           SKY/WX    TMP DP  RH WIND       PRES   REMARKS
GERALDTON      MOCLDY    -6 -11  77 S3        30.05R
THUNDER BAY    MOCLDY    -2  -8  78 CALM      30.10F
SIOUX LOOKOUT  CLOUDY    -8 -13  77 S5        29.98R WCI -19
TORONTO        PTSUNNY   34  25  69 SW12      30.26R
BIG TROUT LK   CLEAR    -27 -33  75 W7        29.97R WCI -46
PICKLE LAKE    MOCLDY   -13 -17  84 W6        29.96R WCI -27
DRYDEN         CLOUDY    -4  -9  77 S6        29.96R WCI -16
KENORA         CLOUDY    -2  -8  78 S5        29.93R WCI -12
$$
                *** MANITOBA***

CITY           SKY/WX    TMP DP  RH WIND       PRES   REMARKS
BRANDON        CLOUDY     3  -4  72 N5        29.91R WCI  -6
DAUPHIN        FLURRIES  -4  -8  84 W7        29.97R WCI -18
ISLAND LAKE    CRYSTALS -31 -38  68 W2        30.01R
PILOT MOUND      N/A      5  -2  72 NE2         N/A
THE PAS        MOCLDY   -18 -26  69 CALM      30.02R
THOMPSON       CRYSTALS -45 -53  66 CALM      30.04R
WINNIPEG       CLOUDY     1  -4  78 NE5       29.95S WCI  -8
LYNN LAKE      CLEAR    -40 -47  67 NW7       29.99R WCI -61
CHURCHILL      PTCLDY   -44 -53  60 W13       29.98S WCI -73
GILLAM         CLEAR    -40 -49  60 W7        30.02R WCI -61
$$
                ***SASKATCHEWAN***

CITY           SKY/WX    TMP DP  RH WIND       PRES   REMARKS
ESTEVAN        LGT SNOW   5   0  78 N7        29.86R WCI  -7
KINDERSLEY     CLOUDY     3  -4  72 N12       29.94R WCI -13
LLOYDMINSTER   PTCLDY    -2  -6  84 W10       29.94R WCI -19
PRINCE ALBERT  CLOUDY    -8 -13  77 CALM      30.00R
REGINA         MOCLDY     0  -4  85 NW7       29.90R WCI -13
YORKTON        MOCLDY    -4  -8  84 NW9       29.92R WCI -20
N. BATTLEFORD  CLOUDY     5  -4  66 NW8       29.99R WCI  -8
LA RONGE       FLURRIES -15 -20  76 CALM      29.97R
SASKATOON      CLOUDY     1  -8  66 N8        29.97R WCI -12
SWIFT CURRENT  LGT SNOW   1  -4  78 W6        29.87R WCI -10
$$
NOTE: THESE ARE AUTOMATED STATIONS WITH LIMITED QUALITY CONTROL
      "FAIR" INDICATES FEW OR NO CLOUDS BELOW 12,000 FEET WITH NO
      SIGNIFICANT WEATHER AND/OR OBSTRUCTIONS TO VISIBILITY.
      SKY/WX - SKY CONDITION AND SIGNIFICANT WEATHER.
      TMP - AIR TEMPERATURE.    DP   - DEWPOINT TEMPERATURE.
      RH  - RELATIVE HUMIDITY.  PRES - PRESSURE.
      HX  - HEAT INDEX.         WCI  - WIND CHILL INDEX.
$




USA.gov is the U.S. government's official web portal to all federal, state and local government web resources and services.